AirNav   Bose A20 Aviation Headset
 
 359 users online  

0J0 Abbeville Municipal Airport
Abbeville, Alabama, USA

GOING TO ABBEVILLE?


FAA INFORMATION EFFECTIVE 11 OCTOBER 2018

Location

FAA Identifier: 0J0
Lat/Long: 31-36-00.8000N / 085-14-17.9100W
31-36.013333N / 085-14.298500W
31.6002222 / -85.2383083
(estimated)
Elevation: 463.1 ft. / 141.2 m (surveyed)
Variation: 01W (1985)
From city: 3 miles N of ABBEVILLE, AL
Time zone: UTC -5 (UTC -6 during Standard Time)
Zip code: 36310

Airport Operations

Airport use: Open to the public
Activation date: 08/1959
Control tower: no
ARTCC: JACKSONVILLE CENTER
FSS: ANNISTON FLIGHT SERVICE STATION
NOTAMs facility: ANB (NOTAM-D service available)
Attendance: UNATNDD
Wind indicator: lighted
Segmented circle: no
Lights: ACTVT MIRL RY 18/36 - CTAF.
Beacon: white-green (lighted land airport)
Operates sunset to sunrise.

Airport Communications

CTAF/UNICOM: 122.8
WX ASOS at DHN (20 nm SW): PHONE 334-983-5999
  • UNICOM IS LCTD AT POLICE STATION.

Nearby radio navigation aids

VOR radial/distance  VOR name  Freq  Var
RRSr026/21.4WIREGRASS VORTAC111.6002E
EUFr193/21.7EUFAULA VORTAC109.2002E
HEYr060/(25.2)HANCHEY VOR110.6003W
OZRr054/31.9CAIRNS VOR/DME111.2003W
EDNr065/(38.6)ENTERPRISE VOR116.6003W

 
NDB name  Hdg/Dist  Freq  Var  ID
BLAAK295/23.134403WIWJ .. .-- .---
HANCHEY061/25.222103WHYE .... -.-- .
LOWE064/29.526903WLOR .-.. --- .-.

Airport Services

Parking: tiedowns
Airframe service: NONE
Powerplant service: NONE

Runway Information

Runway 17/35

Dimensions: 2900 x 80 ft. / 884 x 24 m
Surface: asphalt/aggregate friction seal coat, in fair condition
Runway edge lights: medium intensity
Runway edge markings: MARKINGS ARE FADED.
RUNWAY 17  RUNWAY 35
Latitude: 31-36.249833N31-35.776000N
Longitude: 085-14.336667W085-14.260333W
Elevation: 463.1 ft.462.8 ft.
Traffic pattern: leftleft
Runway heading: 173 magnetic, 172 true353 magnetic, 352 true
Displaced threshold: 300 ft.no
Markings: basic, in poor conditionbasic, in poor condition
Touchdown point: yes, no lightsyes, no lights
Obstructions: 27 ft. tree, 730 ft. from runway, 85 ft. left of centerline, 19:1 slope to clear
RY 17 APCH SLOPE 50:1 TO DSPLCD THLD.
26 ft. tree, 687 ft. from runway, 6 ft. left of centerline, 18:1 slope to clear

Airport Ownership and Management from official FAA records

Ownership: Publicly-owned
Owner: CITY OF ABBEVILLE
PO BOX 427
ABBEVILLE, AL 36310
Phone 334-585-6444
Manager: PAM WARD
PO BOX 427
ABBEVILLE, AL 36310
Phone 334-585-6444

Airport Operational Statistics

Aircraft based on the field: 1
Single engine airplanes: 1
    
Aircraft operations: avg 31/week *
75% military
25% transient general aviation
* for 12-month period ending 12 January 2018

Instrument Procedures

There are no published instrument procedures at 0J0.

Some nearby airports with instrument procedures:

0J6 - Headland Municipal Airport (15 nm S)
KDHN - Dothan Regional Airport (20 nm SW)
11A - Clayton Municipal Airport (21 nm NW)
KBIJ - Early County Airport (21 nm SE)
KEUF - Weedon Field Airport (22 nm N)
 
Loc | Ops | Rwys | IFR | FBO | Links
Com | Nav | Svcs | Stats | Notes


 
Area around 0J0 (Abbeville Municipal Airport)
 
Road maps at: MapQuest Bing Google
 
Aerial photo
WARNING: Photo may not be current or correct
Aerial photo of 0J0 (Abbeville Municipal Airport)
Do you have a better or more recent aerial photo of Abbeville Municipal Airport that you would like to share? If so, please send us your photo.

 
Sectional chart

 
Airport distance calculator
Flying to Abbeville Municipal Airport? Find the distance to fly.

From to 0J0

Sunrise and sunset
Times for 22-Oct-2018
 Local
(UTC-5)
 Zulu
(UTC)
Morning civil twilight06:2511:25
Sunrise06:5011:50
Sunset18:0123:01
Evening civil twilight18:2523:25

Current date and time
Zulu (UTC)  22-Oct-2018 07:22:21
Local (UTC-5)  22-Oct-2018 02:22:21
 
METAR
KDHN 
20nm SW 
220653Z AUTO 04004KT 10SM CLR 08/04 A3023 RMK AO2 SLP235 T00780039
KBIJ 
21nm SE 
220655Z AUTO 00000KT 10SM CLR 07/05 A3022 RMK AO2
KEUF 
22nm N 
220658Z AUTO 00000KT 10SM CLR 07/06 A3021 RMK AO2 SLP229 T00670061 $
KHEY 
26nm SW 
220658Z AUTO 06006KT 10SM CLR 11/05 A3018 RMK AO2 SLP222 T01080045 $
KLOR 
30nm SW 
220658Z AUTO 04003KT 10SM CLR 08/07 A3019 RMK AO2 SLP206 T00780067 $
KOZR 
31nm SW 
220656Z AUTO 04005KT 10SM CLR 08/06 A3019 RMK AO2 SLP225 T00790057
KSXS 
34nm SW 
220658Z AUTO 06003KT 10SM CLR 09/06 A3019 RMK AO2 SLP225 T00910058
KEDN 
38nm SW 
220655Z AUTO 00000KT 10SM CLR 10/05 A3020 RMK AO2 T00990052
TAF
KDHN 
20nm SW 
220520Z 2206/2306 05006KT P6SM SKC FM221800 11006KT P6SM FEW250 FM230100 VRB02KT P6SM FEW250
NOTAMs
Click for the latest NOTAMs
NOTAMs are issued by the DoD/FAA and will open in a separate window not controlled by AirNav.

 

 
 

Aviation Businesses, Services, and Facilities

  
 Business Name 
 
 Contact 
 
 Services / Description 
 
Distance
 
Comments
  
Abbeville Municipal Airport no information available

If you are affiliated with Abbeville Municipal Airport and would like to show here your services, contact info, web link, logo, and more, click here
on airport  
   write
 

Would you like to see your business listed on this page?

 If your business provides an interesting product or service to pilots, flight crews, aircraft, or users of the Abbeville Municipal Airport, you should consider listing it here.  To start the listing process, click on the button below
 
Add a business
 

Other Pages about Abbeville Municipal Airport

Update a link
 
Copyright © AirNav, LLC. All rights reserved. Privacy Policy  Contact